Starlink 3183

operational
NORAD ID: 51134 Int'l Des: 2022-005 Owner: SPXS Country: US Constellation: starlink
LEOCIRCULAR

Über Starlink 3183

Beschreibung wird geladen...

Live-Position

3D-Globus wird geladen...

Nächste Überflüge

Höhenverlauf

Altitude vs Time

uPlot chart will show altitude changes over time

Zweizeiliger Elementsatz

1 51134U 22005AG 25259.55486403 -.00000833 00000-0 -34250-4 0 9995
2 51134 53.2192 350.8468 0001308 99.4993 260.6147 15.08827831202594
Epoch: 16. Sept. 2025 • Age: 38 hours

Aktueller Status

Höhe 552.9 km
Geschwindigkeit 7.58 km/s
Subsatellitenpunkt -37.78°S, 97.52°W
Startdatum 19. Jan. 2022
Alter 3.6 years
Typ internet

Technische Details

Klassifizierung Payload
Masse 297.00 kg
Trockenmasse 275.00 kg
Gesamtmasse 297.00 kg
Länge 0.20 m
Durchmesser 2.80 m
Spannweite 9.00 m
Form Box + pan
Hersteller SPXS
Bus-Typ Starlink
Phasenstatus In Orbit
Besitzer/Staat SPXS/US

Große Konstellationen

Loading constellations...